カタログに戻る

CZ-6A DEB

運用中SSO
NORAD 56656·DEBRIS·🇨🇳 China

打ち上げ Nov 11, 2022 から Taiyuan Satellite Launch Center

Loading…

次のパス (今後24時間)

TLE

経年Source: Space-Track

元期: Sep 10, 2026, 16:06 UTC

1 56656U 22151AGG 26253.67145448  .00000710  00000-0  48616-3 0  9992
2 56656  98.8626 221.8600 0116750 194.3746 165.4088 13.99578517172379

AllMySatでCZ-6A DEBをリアルタイム追跡

Download on the App Store